Location: Paderno d�Adda
(45.6667°N, 9.4333°E)
Time: 17:10:27
(UTC+00:00)

MOS 1 - Pass Details

Date: 19 September 2020
Orbit: 878 x 891 km, 99.1° (Epoch: 20 October)

Event Time Altitude Azimuth Distance (km) Brightness Sun altitude
Exits shadow 19:21:22 17° 171° (S) 2,115 6.0 -20.5°
Maximum altitude 19:25:55 76° 256° (WSW) 923 4.4 -21.3°
Drops below altitude 10° 19:31:39 10° 342° (NNW) 2,570 7.3 -22.2°
Sets 19:34:04 0° 344° (NNW) 3,514 8.0 -22.5°
